When you browse on this site, cookies collect data to enhance your experience and personalize the content and advertising you see.
Visit our Privacy Policy to learn more. By continuing to use the site, you agree to this use of cookies and data.
  • In Czech Republic
  • List of Countries
  • For 7 days
  • Water Temperature
  • Weather Map
  • Weather Widgets
  • user-avatar
    Login

    Hourly Weather Sallama

    Today, 4 June, Thursday

    Time Temperature Precipitation Wind Pressure Humidity
    00:00 +16°C° 0 mm 0 mps 739 mmHg 77%
    01:00 +16°C° 0 mm 0 mps 739 mmHg 76%
    02:00 +15°C° 0 mm 0 mps 738 mmHg 81%
    03:00 +15°C° 0 mm 0 mps 739 mmHg 80%
    04:00 +15°C° 0 mm 0 mps 739 mmHg 79%
    05:00 +15°C° 0 mm 0 mps 739 mmHg 78%
    06:00 +20°C° 0 mm 1 mps 739 mmHg 66%
    07:00 +22°C° 0 mm 1 mps 740 mmHg 53%
    08:00 +25°C° 0 mm 1 mps 740 mmHg 41%
    09:00 +26°C° 0 mm 2 mps 740 mmHg 37%
    10:00 +28°C° 0 mm 3 mps 741 mmHg 33%
    11:00 +30°C° 0 mm 4 mps 741 mmHg 29%
    12:00 +30°C° 0 mm 4 mps 741 mmHg 30%
    13:00 +30°C° 0 mm 4 mps 740 mmHg 30%
    14:00 +30°C° 0 mm 5 mps 740 mmHg 31%
    15:00 +30°C° 0 mm 5 mps 740 mmHg 33%
    16:00 +29°C° 0 mm 4 mps 740 mmHg 35%
    17:00 +28°C° 0 mm 4 mps 740 mmHg 37%
    18:00 +26°C° 0 mm 4 mps 740 mmHg 42%
    19:00 +24°C° 0 mm 3 mps 740 mmHg 48%
    20:00 +23°C° 0 mm 2 mps 740 mmHg 54%
    21:00 +21°C° 0 mm 2 mps 741 mmHg 53%
    22:00 +21°C° 0 mm 2 mps 741 mmHg 52%
    23:00 +21°C° 0 mm 2 mps 741 mmHg 51%

    Tomorrow, 5 June, Friday

    Time Temperature Precipitation Wind Pressure Humidity
    00:00 +21°C° 0 mm 1 mps 741 mmHg 54%
    01:00 +20°C° 0 mm 1 mps 740 mmHg 57%
    02:00 +20°C° 0 mm 1 mps 740 mmHg 60%
    03:00 +20°C° 0 mm 1 mps 740 mmHg 60%
    04:00 +19°C° 0 mm 1 mps 740 mmHg 61%
    05:00 +19°C° 0 mm 1 mps 741 mmHg 62%
    06:00 +22°C° 0 mm 1 mps 741 mmHg 52%
    07:00 +25°C° 0 mm 1 mps 741 mmHg 43%
    08:00 +28°C° 0 mm 1 mps 741 mmHg 34%
    09:00 +29°C° 0 mm 2 mps 741 mmHg 31%
    10:00 +31°C° 0 mm 2 mps 741 mmHg 29%
    11:00 +33°C° 0 mm 3 mps 741 mmHg 26%
    12:00 +33°C° 0 mm 3 mps 741 mmHg 27%
    13:00 +34°C° 0 mm 4 mps 740 mmHg 27%
    14:00 +34°C° 0 mm 4 mps 740 mmHg 27%
    15:00 +33°C° 0 mm 4 mps 740 mmHg 28%
    16:00 +32°C° 0 mm 5 mps 739 mmHg 30%
    17:00 +32°C° 0 mm 5 mps 739 mmHg 31%
    18:00 +28°C° 0 mm 4 mps 739 mmHg 35%
    19:00 +26°C° 0 mm 3 mps 739 mmHg 39%
    20:00 +24°C° 0 mm 3 mps 740 mmHg 43%
    21:00 +24°C° 0 mm 2 mps 739 mmHg 44%
    22:00 +23°C° 0 mm 2 mps 739 mmHg 45%
    23:00 +23°C° 0 mm 1 mps 739 mmHg 45%

    Day after tomorrow, 6 June, Saturday

    Time Temperature Precipitation Wind Pressure Humidity
    00:00 +22°C° 0 mm 1 mps 739 mmHg 47%
    01:00 +22°C° 0 mm 1 mps 739 mmHg 49%
    02:00 +21°C° 0 mm 1 mps 739 mmHg 50%
    03:00 +21°C° 0 mm 1 mps 739 mmHg 50%
    04:00 +21°C° 0 mm 1 mps 739 mmHg 49%
    05:00 +22°C° 0 mm 1 mps 739 mmHg 48%
    06:00 +24°C° 0 mm 1 mps 739 mmHg 42%
    07:00 +27°C° 0 mm 1 mps 740 mmHg 36%
    08:00 +30°C° 0 mm 1 mps 740 mmHg 30%
    09:00 +32°C° 0 mm 1 mps 740 mmHg 29%
    10:00 +34°C° 0 mm 2 mps 740 mmHg 28%
    11:00 +36°C° 0 mm 3 mps 740 mmHg 28%
    12:00 +36°C° 0 mm 3 mps 739 mmHg 27%
    13:00 +36°C° 0 mm 4 mps 739 mmHg 27%
    14:00 +36°C° 0 mm 4 mps 738 mmHg 26%
    15:00 +36°C° 0 mm 4 mps 738 mmHg 28%
    16:00 +35°C° 0 mm 4 mps 738 mmHg 29%
    17:00 +34°C° 0 mm 4 mps 738 mmHg 31%
    18:00 +30°C° 0 mm 3 mps 738 mmHg 37%
    19:00 +27°C° 0 mm 3 mps 738 mmHg 43%
    20:00 +25°C° 0 mm 2 mps 738 mmHg 49%
    21:00 +24°C° 0 mm 2 mps 738 mmHg 50%
    22:00 +24°C° 0 mm 1 mps 737 mmHg 51%
    23:00 +23°C° 0 mm 1 mps 737 mmHg 52%

    7 June, Sunday

    Time Temperature Precipitation Wind Pressure Humidity
    00:00 +22°C° 0 mm 1 mps 737 mmHg 53%
    01:00 +22°C° 0 mm 1 mps 737 mmHg 54%
    02:00 +21°C° 0 mm 1 mps 737 mmHg 55%
    03:00 +21°C° 0 mm 1 mps 737 mmHg 56%
    04:00 +21°C° 0 mm 1 mps 737 mmHg 57%
    05:00 +21°C° 0 mm 1 mps 737 mmHg 58%
    06:00 +25°C° 0 mm 1 mps 737 mmHg 48%
    07:00 +28°C° 0 mm 1 mps 738 mmHg 39%
    08:00 +31°C° 0 mm 1 mps 738 mmHg 30%
    09:00 +32°C° 0 mm 2 mps 738 mmHg 29%
    10:00 +35°C° 0 mm 2 mps 738 mmHg 28%
    11:00 +36°C° 0 mm 3 mps 738 mmHg 27%
    12:00 +36°C° 0 mm 4 mps 738 mmHg 27%
    13:00 +36°C° 0 mm 4 mps 737 mmHg 27%
    14:00 +36°C° 0 mm 5 mps 737 mmHg 27%
    15:00 +35°C° 0 mm 5 mps 737 mmHg 29%
    16:00 +34°C° 0 mm 5 mps 736 mmHg 31%
    17:00 +32°C° 0 mm 4 mps 736 mmHg 33%
    18:00 +29°C° 0 mm 4 mps 736 mmHg 40%
    19:00 +27°C° 0 mm 3 mps 737 mmHg 46%
    20:00 +24°C° 0 mm 3 mps 737 mmHg 52%
    21:00 +24°C° 0 mm 2 mps 737 mmHg 55%
    22:00 +23°C° 0 mm 2 mps 737 mmHg 58%
    23:00 +22°C° 0 mm 1 mps 736 mmHg 60%

    8 June, Monday

    Time Temperature Precipitation Wind Pressure Humidity
    00:00 +22°C° 0 mm 1 mps 736 mmHg 60%
    01:00 +21°C° 0 mm 1 mps 736 mmHg 60%
    02:00 +21°C° 0 mm 1 mps 736 mmHg 60%
    03:00 +21°C° 0 mm 1 mps 736 mmHg 61%
    04:00 +21°C° 0 mm 1 mps 736 mmHg 61%
    05:00 +21°C° 0 mm 1 mps 736 mmHg 61%
    06:00 +23°C° 0 mm 1 mps 736 mmHg 54%
    07:00 +26°C° 0 mm 1 mps 736 mmHg 46%
    08:00 +28°C° 0 mm 2 mps 737 mmHg 39%
    09:00 +30°C° 0 mm 2 mps 737 mmHg 35%
    10:00 +33°C° 0 mm 3 mps 737 mmHg 31%
    11:00 +34°C° 0 mm 4 mps 737 mmHg 26%
    12:00 +34°C° 0 mm 5 mps 737 mmHg 28%
    13:00 +34°C° 0 mm 5 mps 736 mmHg 29%
    14:00 +33°C° 0 mm 6 mps 736 mmHg 31%
    15:00 +32°C° 0 mm 5 mps 736 mmHg 35%
    16:00 +30°C° 0 mm 5 mps 736 mmHg 39%
    17:00 +29°C° 0 mm 4 mps 736 mmHg 43%
    18:00 +27°C° 0 mm 3 mps 736 mmHg 50%
    19:00 +25°C° 0 mm 3 mps 736 mmHg 57%
    20:00 +23°C° 0 mm 2 mps 736 mmHg 64%
    21:00 +23°C° 0 mm 2 mps 736 mmHg 64%
    22:00 +21°C° 0 mm 2 mps 736 mmHg 64%
    23:00 +22°C° 0 mm 1 mps 736 mmHg 63%

    9 June, Tuesday

    Time Temperature Precipitation Wind Pressure Humidity
    00:00 +21°C° 0 mm 1 mps 736 mmHg 66%
    01:00 +21°C° 0 mm 1 mps 736 mmHg 69%
    02:00 +20°C° 0 mm 1 mps 736 mmHg 72%
    03:00 +20°C° 0 mm 1 mps 736 mmHg 74%
    04:00 +20°C° 0 mm 1 mps 736 mmHg 76%
    05:00 +20°C° 0 mm 1 mps 736 mmHg 78%
    06:00 +22°C° 0 mm 1 mps 737 mmHg 68%
    07:00 +24°C° 0 mm 1 mps 737 mmHg 58%
    08:00 +27°C° 0 mm 2 mps 737 mmHg 48%
    09:00 +28°C° 0 mm 2 mps 738 mmHg 43%
    10:00 +30°C° 0 mm 3 mps 738 mmHg 38%
    11:00 +33°C° 0 mm 3 mps 738 mmHg 32%
    12:00 +33°C° 0 mm 4 mps 738 mmHg 33%
    13:00 +32°C° 0 mm 5 mps 738 mmHg 33%
    14:00 +32°C° 0 mm 5 mps 737 mmHg 33%
    15:00 +30°C° 0 mm 5 mps 737 mmHg 35%
    16:00 +29°C° 0 mm 5 mps 737 mmHg 38%
    17:00 +28°C° 0 mm 4 mps 737 mmHg 40%
    18:00 +26°C° 0 mm 3 mps 737 mmHg 48%
    19:00 +24°C° 0 mm 3 mps 737 mmHg 56%
    20:00 +21°C° 0 mm 2 mps 737 mmHg 63%
    21:00 +21°C° 0 mm 1 mps 737 mmHg 65%
    22:00 +20°C° 0 mm 1 mps 737 mmHg 67%
    23:00 +20°C° 0 mm 1 mps 737 mmHg 68%
    Show more